CAPE
0 0 0 1 1 1 1 0 0 0 0 0 0 0 0 0 0 0 0 0 0 0 0 0 0 0 0 113 204 127 103 106 64 22 11 13 0 0 0 0 1 0 0 0 0 0 0 0 0 0 0 0 288 515
0 0 2 0 0 1 1 1 0 0 0 0 0 0 0 0 0 0 0 0 0 0 0 0 0 0 0 0 1 69 91 79 64 111 19 0 0 0 1 5 0 0 0 0 0 0 0 0 0 0 0 5 2 144
0 0 0 0 0 1 1 1 1 1 0 0 0 0 0 0 0 0 0 0 0 0 0 0 0 0 0 0 0 20 47 16 0 0 0 0 0 0 0 0 0 0 0 0 0 0 29 1 0 0 0 0 0 0
1 1 1 1 1 1 1 1 1 1 1 0 0 0 0 0 0 0 0 0 0 0 0 0 0 0 0 0 0 0 0 0 1 0 0 0 0 0 0 0 0 0 0 0 0 0 0 0 0 0 0 0 0 0
1 1 1 1 1 1 0 0 1 1 0 0 0 0 0 0 0 0 0 0 0 0 0 0 0 0 0 0 0 0 0 0 0 5 0 0 0 0 0 0 0 0 0 0 0 0 0 0 0 0 0 0 0 0
1 1 1 1 1 0 0 0 0 1 0 0 0 0 0 0 0 0 0 0 0 0 0 0 0 0 0 0 0 0 0 0 0 0 0 0 0 0 0 0 0 0 0 0 0 0 0 0 0 0 0 0 0 0
1 1 1 1 1 1 0 1 0 0 0 0 0 0 0 0 0 0 0 0 0 0 0 0 0 0 0 0 0 0 0 0 0 0 0 0 0 0 0 0 0 0 0 0 0 0 0 0 0 0 0 0 0 0
1 1 1 1 1 1 1 0 0 0 0 0 0 0 0 0 0 0 0 0 0 0 0 0 0 0 0 0 0 0 0 0 0 0 0 0 0 0 0 0 0 0 0 0 0 0 0 0 0 0 0 0 0 0
1 1 1 1 1 1 0 0 0 0 0 0 0 0 0 0 0 0 0 0 0 0 0 0 0 0 0 0 0 0 0 0 0 0 0 0 0 0 0 0 0 0 0 0 0 0 0 0 0 0 0 0 0 0
1 1 1 1 0 0 0 0 0 0 0 0 0 0 0 0 0 0 0 0 0 0 0 0 0 0 0 0 0 0 0 0 0 0 0 0 0 0 0 0 0 0 0 0 0 0 0 0 0 0 0 0 0 0
0 0 1 1 0 0 0 0 0 0 0 0 0 0 0 0 0 0 0 0 0 0 0 0 0 0 0 0 0 0 0 0 0 0 0 0 0 0 0 0 0 0 0 0 0 0 0 0 0 0 0 0 0 0
2 2 1 0 0 0 0 0 0 0 0 0 0 0 0 0 0 0 0 0 0 0 0 0 0 0 0 0 0 0 0 0 0 0 0 0 0 0 0 0 0 0 0 0 0 0 0 0 0 0 0 0 0 0
2 2 0 0 0 0 0 0 0 0 0 0 0 0 0 0 0 0 0 0 0 0 0 0 0 0 0 0 0 0 0 0 0 0 0 0 0 0 0 0 0 0 0 0 0 0 0 0 0 0 0 0 0 0
0 0 0 0 0 0 0 0 0 0 0 0 0 0 0 0 0 0 0 0 0 0 0 0 0 0 0 0 0 22 6 0 0 0 0 0 0 0 0 0 0 0 0 0 0 0 0 0 0 0 0 0 0 0
0 0 0 0 0 0 0 0 0 0 0 0 0 0 0 0 0 0 0 0 0 0 0 0 0 0 0 0 2 8 13 3 0 0 0 0 0 0 0 0 0 0 0 0 0 0 0 0 0 0 0 0 0 0
0 0 0 0 0 0 0 0 0 0 0 0 0 0 0 0 0 0 0 0 0 0 0 5 1 0 0 0 0 3 4 0 0 0 0 0 0 0 0 0 0 0 0 0 0 0 0 0 0 0 0 0 0 0
0 0 0 0 0 0 0 0 0 0 0 0 0 0 0 0 0 0 0 0 0 0 4 14 22 0 0 0 0 0 0 0 0 17 54 53 0 0 0 0 0 0 0 0 0 0 0 0 0 0 0 0 0 0
0 0 0 0 0 0 0 0 0 0 0 0 0 0 0 0 0 0 0 0 0 0 0 22 4 2 4 1 0 0 0 0 5 42 147 84 14 0 0 0 0 0 0 0 0 0 0 0 0 0 0 0 0 0
1 0 1 0 0 0 0 0 0 0 1 0 0 0 0 0 0 0 0 0 0 0 0 4 9 0 2 46 15 2 69 123 51 203 278 92 13 0 0 0 0 0 0 0 0 0 0 0 0 0 0 0 0 0
7 7 4 8 0 0 0 3 0 1 1 0 0 0 0 0 0 0 0 0 0 0 0 18 8 1 22 13 0 0 21 262 528 432 259 106 13 0 0 0 0 0 0 0 0 0 0 0 0 0 0 0 0 0
4 5 5 2 0 0 0 0 0 5 6 1 0 3 0 0 0 0 0 0 0 0 0 0 0 2 0 0 0 0 99 355 503 157 102 96 32 0 0 0 0 0 0 0 0 0 0 0 0 0 0 0 0 0
5 17 0 0 1 1 0 0 0 0 1 1 0 0 0 4 1 0 0 0 0 0 0 0 0 0 0 0 0 0 1 35 222 195 147 81 49 18 0 0 0 0 0 0 0 0 0 0 0 0 0 0 0 0
23 4 3 2 1 2 1 5 7 10 5 9 13 5 7 4 0 0 0 0 0 0 0 0 0 0 0 0 1 0 8 36 121 102 155 113 53 8 0 0 0 0 0 0 0 0 0 0 0 0 0 0 0 0
1 6 1 5 3 0 0 4 3 5 12 10 2 2 2 2 3 6 1 0 0 0 0 0 0 0 0 0 0 0 16 13 10 152 195 89 64 42 14 1 0 1 0 0 0 0 0 0 0 0 0 0 1 0
5 0 1 0 1 0 1 2 16 0 0 1 2 1 0 23 18 3 0 0 0 0 0 0 0 0 0 0 0 17 30 9 6 14 114 82 59 13 25 16 4 11 5 1 5 4 3 0 0 0 0 0 0 0
0 0 1 0 2 0 1 0 0 1 0 3 0 2 4 2 6 0 0 0 2 0 0 0 0 0 0 0 0 3 8 1 3 0 83 60 20 58 55 38 43 42 19 18 8 1 0 0 0 2 0 0 0 1
0 0 0 0 0 1 1 0 6 2 1 2 2 6 5 4 0 0 7 7 3 0 0 0 0 0 0 0 0 0 0 0 0 10 39 37 21 69 85 64 63 49 28 19 3 8 0 0 6 8 6 0 0 3
0 1 0 1 4 0 0 4 0 0 1 3 9 5 3 5 13 0 0 5 1 3 0 0 0 0 0 0 0 0 0 0 0 1 33 36 49 66 52 59 32 22 39 44 43 25 3 0 0 0 6 6 14 7
0 0 2 1 2 4 6 2 2 8 12 10 3 2 12 9 6 3 0 0 2 4 7 3 1 2 4 0 0 0 0 0 0 0 8 28 25 29 35 35 24 14 24 10 13 23 10 12 0 0 1 0 0 0
0 0 1 5 3 0 1 0 0 0 2 6 9 3 1 0 1 0 0 1 3 1 0 0 0 0 0 0 0 0 0 0 0 0 0 0 0 1 31 43 50 51 44 40 42 7 0 0 0 0 0 0 0 0
0 0 1 0 0 0 0 1 0 1 0 1 4 2 9 1 0 0 0 0 0 1 0 0 0 0 0 0 0 0 0 1 0 0 0 0 15 20 34 45 56 59 60 71 26 2 0 0 0 3 9 3 1 0
0 0 0 0 0 0 0 0 4 6 0 0 0 0 0 0 0 0 0 0 0 4 0 0 0 0 0 0 0 0 0 24 35 24 38 37 53 56 52 38 49 50 14 9 3 0 0 0 0 9 6 0 0 0
3 1 5 4 2 6 7 10 19 13 12 5 9 15 13 8 13 37 32 3 4 0 0 0 2 6 29 46 32 21 27 33 55 82 65 54 62 45 33 32 24 8 7 1 8 0 0 0 0 0 0 0 0 0
CIN
0 0 -2 0 0 0 0 0 0 0 0 0 0 0 0 0 0 0 0 0 0 0 0 0 0 0 0 -301 -145 -254 -215 -232 -192 -137 -149 -192 0 0 0 0 -78 0 0 0 0 0 0 0 0 0 0 0 -209 -212
0 -11 -6 0 0 0 0 0 0 0 0 0 0 0 0 0 0 0 0 0 0 0 0 0 0 0 0 0 -34 -426 -243 -257 -263 -166 -193 0 -9 0 -72 -112 0 0 0 0 0 0 0 0 0 0 0 -207 -37 -257
0 0 -6 -5 0 0 0 0 0 0 0 0 0 0 0 0 0 0 0 0 0 0 0 0 0 0 0 0 0 -278 -441 -393 -6 0 -113 -76 0 0 0 0 0 0 0 0 0 -17 -277 -282 0 0 0 0 0 0
0 0 0 0 0 0 0 0 0 0 0 0 0 0 0 0 0 0 0 0 0 0 0 0 0 0 0 0 0 0 0 -128 -234 0 0 0 0 0 0 0 0 0 0 0 0 0 0 0 -26 0 0 0 0 0
0 0 0 0 0 0 0 0 0 0 0 0 0 0 0 0 0 0 0 0 0 0 0 0 0 0 0 0 0 0 0 0 0 -191 0 0 0 0 0 0 0 0 0 0 0 0 0 0 0 0 0 0 0 0
0 0 0 0 0 0 0 0 0 0 0 0 0 0 0 0 0 0 0 0 0 0 0 0 0 0 0 0 0 0 0 0 0 0 0 0 0 0 0 0 0 0 0 0 0 0 0 0 0 0 0 0 0 0
0 0 0 0 0 0 0 0 0 0 0 0 0 0 0 0 0 0 0 0 0 0 0 0 0 0 0 0 0 0 0 0 0 0 0 0 0 0 0 0 0 0 0 0 0 0 0 0 0 0 0 0 0 0
0 0 0 0 0 0 0 0 0 0 0 0 0 0 0 0 0 0 0 0 0 0 0 0 0 0 0 0 0 0 0 0 0 0 0 0 0 0 0 0 0 0 0 0 0 0 0 0 0 0 0 0 0 0
0 0 0 0 0 0 0 0 0 0 0 0 0 0 0 0 0 0 0 0 0 0 0 0 0 0 0 0 0 0 0 0 0 0 0 0 0 0 0 0 0 0 0 0 0 0 0 0 0 0 0 0 0 0
0 0 0 0 0 0 0 0 0 0 0 0 0 0 0 0 0 0 0 0 0 0 0 0 0 0 0 0 0 0 0 0 0 0 0 0 0 0 0 0 0 0 0 0 0 0 0 0 0 0 0 0 0 0
0 0 0 0 0 0 0 0 0 0 0 0 0 0 0 0 0 0 0 0 0 0 0 0 0 0 0 0 0 0 0 0 0 0 0 0 0 0 0 0 0 0 0 0 0 0 0 0 0 0 0 0 0 0
0 0 0 0 0 0 0 0 0 0 0 0 0 0 0 0 0 0 0 0 0 0 0 0 0 0 0 0 0 0 0 0 0 0 0 0 0 0 0 0 0 0 0 0 0 0 0 0 0 0 0 0 0 0
0 0 0 0 0 0 0 0 0 0 0 0 0 0 0 0 0 0 0 0 0 0 0 0 0 0 0 0 0 -2 0 0 0 0 0 0 0 0 0 0 0 0 0 0 0 0 0 0 0 0 0 0 0 0
0 0 0 0 0 0 0 0 0 0 0 0 0 0 0 0 0 0 0 0 0 0 0 0 0 0 0 0 -6 -6 -29 0 0 0 0 0 0 0 0 0 0 0 0 0 0 0 0 0 0 0 0 0 0 0
0 0 0 0 0 0 0 0 0 0 0 0 0 0 0 0 0 0 0 0 0 0 0 -11 0 0 0 -4 -19 -35 -13 -5 0 0 0 0 0 0 0 0 0 0 0 0 0 0 0 0 0 0 0 0 0 0
0 0 0 0 0 0 0 0 0 0 0 0 0 0 0 0 0 0 0 0 0 0 -21 -88 -9 0 0 0 0 -8 -12 0 0 0 0 0 0 0 0 0 0 0 0 0 0 0 0 0 0 0 0 0 0 0
-3 0 0 0 0 0 0 0 0 0 0 0 0 0 0 0 0 0 0 0 0 0 -78 -65 -14 0 0 0 0 0 0 0 0 -38 -87 -154 -10 0 0 0 0 0 0 0 0 0 0 0 0 0 0 0 0 0
0 0 0 0 0 0 0 0 0 0 0 0 0 0 0 0 0 0 0 0 0 0 0 -25 -65 -19 -19 -6 0 0 0 0 -71 -78 -106 -182 -246 0 0 0 0 0 0 0 0 0 0 0 0 0 0 0 0 0
-20 -7 -31 0 0 0 0 0 0 0 0 -1 0 0 0 0 0 0 0 0 0 0 0 -15 -31 -17 -18 -69 -61 -38 -85 -108 -64 -101 -154 -220 -258 0 0 0 0 0 0 0 0 0 0 0 0 0 0 0 0 0
-24 -27 -21 -9 0 0 0 -1 0 0 0 0 0 0 0 0 0 0 0 0 0 0 0 -18 -30 -37 -65 -119 -11 0 -222 -173 -91 -90 -112 -184 -231 0 0 0 0 0 0 0 0 0 0 0 0 0 0 0 0 0
-19 -17 -18 -25 0 0 0 0 0 -2 -6 -2 0 -4 0 0 0 0 0 0 0 0 0 0 -1 -86 0 0 0 0 -210 -151 -87 -64 -85 -135 -208 0 0 0 0 0 0 0 0 0 0 0 0 0 0 0 0 0
-10 -2 -1 -9 -5 0 0 0 0 0 -2 -2 0 0 0 -3 -4 0 0 0 0 0 0 0 0 0 0 0 0 0 -19 -143 -111 -110 -144 -156 -147 -163 -22 0 0 0 0 0 0 0 0 0 0 0 0 0 0 0
-5 -10 -3 -15 -1 -1 0 -3 -1 -2 -2 -3 -1 -1 -3 -8 0 -37 -4 0 0 0 0 0 0 0 0 0 -82 0 -85 -121 -56 -53 -92 -110 -136 -162 0 0 0 0 0 0 0 0 0 0 0 0 0 0 0 0
-9 -1 0 0 0 0 0 -1 -3 -3 -2 -7 -4 -1 -11 -4 -19 -4 -1 0 0 0 0 0 0 0 0 0 0 -5 -94 -146 -95 -83 -97 -87 -91 -104 -123 -24 0 -101 0 0 0 0 0 0 0 0 0 0 -56 0
-4 0 0 -1 0 0 -2 -2 0 0 0 -6 -3 -5 -4 -1 0 -4 -1 0 0 0 0 0 0 0 0 0 0 -71 -78 -59 -93 -76 -77 -91 -111 -151 -123 -134 -137 -143 -166 -106 -113 -101 -67 -11 0 0 0 0 0 0
-1 0 0 0 -1 -7 0 0 0 -3 -1 0 -1 -2 -5 0 -1 0 0 -4 -25 0 0 0 0 0 0 0 0 -39 -30 -48 -83 -69 -79 -78 -46 -36 -64 -80 -83 -97 -208 -169 -144 -90 0 0 -15 -32 0 0 -2 -26
-1 0 -1 0 -1 -6 -1 0 0 0 0 0 0 0 -1 0 0 0 -13 -41 -50 0 0 0 0 0 0 0 0 0 0 0 0 -55 -66 -101 -124 -110 -77 -53 -48 -72 -152 -158 -193 -134 0 0 -50 -51 -43 -21 0 -36
0 0 0 0 -1 0 0 0 -1 0 0 0 0 0 0 0 -1 0 -4 -48 -12 -109 -19 0 0 0 0 0 0 0 0 0 0 -11 -128 -153 -154 -119 -98 -74 -72 -85 -113 -141 -139 -126 -40 0 0 0 -47 -44 -33 -41
0 0 0 0 0 0 0 0 0 0 -2 0 0 0 0 -15 -20 -19 0 0 -26 -41 -68 -52 -38 -45 -31 0 0 0 0 0 -31 0 -26 -32 -57 -59 -83 -75 -87 -78 -111 -151 -162 -104 -64 -66 0 0 -46 -2 0 -5
0 0 0 0 0 0 -2 0 -1 0 -3 -1 -4 -3 -5 0 -26 0 -17 -15 -34 -21 0 -28 0 0 0 0 0 0 0 0 0 0 0 -10 -13 -21 -63 -75 -75 -92 -121 -108 -100 -110 0 0 0 0 0 0 0 0
0 -1 -5 -3 0 0 0 -3 -2 -1 -3 -2 -3 -3 -3 -6 0 0 0 0 0 -20 0 0 0 0 0 0 0 0 0 -18 0 0 0 0 -41 -41 -49 -64 -87 -102 -91 -74 -89 -65 -11 0 0 -29 -44 -42 -35 0
0 -9 0 -1 -3 -6 0 0 -6 -9 -1 0 0 0 0 0 0 0 0 0 0 -11 -17 -1 -1 0 0 0 0 0 0 -26 -32 -39 -45 -46 -50 -63 -86 -120 -110 -96 -93 -81 -75 0 0 -1 0 -41 -35 0 0 0
-2 -2 -6 -4 -10 -15 -17 -14 -10 -8 -9 -9 -14 -27 -39 -34 -20 -21 -74 -111 -58 -9 0 -7 -6 -34 -59 -63 -46 -48 -32 -44 -59 -64 -50 -50 -52 -77 -95 -88 -75 -55 -55 -48 -76 0 0 0 0 0 0 0 0 -11
Wind_Speed
27 26 29 29 28 28 27 26 25 25 25 25 25 24 24 23 22 21 21 18 19 22 28 26 21 21 19 18 22 17 17 19 18 17 17 18 17 16 16 16 7 6 7 8 14 17 22 15 17 17 17 15 7 8
28 29 29 28 28 28 26 26 25 25 25 25 25 24 24 24 23 21 20 21 23 22 27 24 29 33 28 26 20 18 16 16 15 19 19 19 17 13 11 12 14 18 18 15 17 20 19 19 17 14 9 10 9 6
28 28 26 23 27 25 25 25 25 24 25 25 25 25 25 24 24 22 23 23 21 24 28 25 29 28 27 30 21 20 19 12 13 14 17 18 20 17 19 20 13 9 14 17 18 19 19 15 12 11 9 9 8 6
29 27 24 25 23 22 24 25 24 24 24 25 25 25 25 25 25 25 24 22 21 21 23 23 21 28 24 25 14 15 21 16 14 15 19 18 18 16 16 16 15 13 12 13 19 19 16 16 9 7 8 9 9 8
29 28 26 22 19 21 23 25 24 23 24 25 25 26 26 27 27 28 26 21 21 17 21 27 29 22 27 25 22 21 24 15 18 18 23 22 18 18 19 18 20 13 15 18 23 11 14 6 2 4 5 6 6 7
27 26 21 17 17 20 22 24 23 23 24 25 26 27 27 27 27 22 19 16 14 18 19 24 22 22 19 17 20 18 14 17 17 11 12 25 25 20 20 24 21 20 20 20 22 7 12 1 1 2 3 5 5 5
22 20 18 18 19 19 22 22 23 23 25 26 26 27 28 26 23 20 20 15 12 19 18 24 23 21 19 14 16 17 17 19 20 21 21 22 24 23 24 24 27 27 24 18 12 7 9 3 3 1 2 3 5 7
19 18 16 17 17 19 17 18 22 24 26 27 27 28 29 29 26 23 19 24 15 20 19 20 22 21 17 15 14 17 19 19 20 21 22 25 26 26 30 28 23 19 15 12 6 12 4 0 3 2 3 3 5 7
18 17 16 15 14 13 15 18 22 25 26 28 28 28 20 17 18 19 17 9 11 17 19 18 19 18 19 17 14 14 16 20 20 20 22 19 23 22 25 20 15 11 11 10 11 6 1 3 4 3 0 4 6 7
16 16 15 12 11 13 17 20 23 25 26 25 18 17 18 15 19 15 18 18 18 19 19 22 19 21 18 18 17 15 17 18 20 20 16 20 26 23 22 12 8 6 5 4 3 2 1 2 3 2 1 2 5 6
12 11 11 11 12 15 18 21 24 24 16 17 17 17 19 20 15 17 18 18 17 20 19 21 21 25 18 18 17 15 14 14 20 20 17 21 23 19 15 9 10 4 2 2 4 5 6 5 4 2 1 3 5 6
13 13 13 14 15 18 20 20 21 17 16 17 18 19 18 17 17 18 19 18 18 20 17 16 19 17 21 15 17 16 15 14 20 13 16 21 19 15 10 9 8 4 4 1 4 5 3 3 3 3 3 4 6 7
14 13 14 15 17 18 19 19 19 19 18 15 16 17 16 16 20 20 19 18 18 16 15 19 21 17 15 16 18 16 15 17 15 15 17 18 19 15 8 4 3 1 1 2 2 2 4 4 4 5 5 6 7 7
14 15 16 16 18 19 19 20 19 16 15 15 14 16 16 17 19 19 20 22 23 22 26 23 21 14 13 13 15 16 16 15 17 19 20 18 16 11 7 4 2 3 4 3 4 4 5 5 6 6 7 7 8 8
16 16 16 17 18 19 19 19 18 15 16 16 16 17 19 19 19 19 21 21 21 24 24 22 18 13 13 15 17 15 14 16 17 20 20 20 15 6 2 1 3 5 6 6 7 7 7 7 7 7 8 8 9 10
18 15 17 19 20 20 20 18 15 15 17 18 19 19 20 21 22 22 23 23 23 25 23 17 17 16 17 16 15 16 17 16 17 17 18 18 7 2 3 4 5 6 8 8 8 9 9 8 8 8 8 9 11 12
16 16 19 21 22 20 19 17 17 17 18 19 22 24 25 24 25 23 23 22 24 22 22 20 20 18 17 20 21 17 19 19 20 24 20 12 4 5 6 7 7 8 8 8 9 9 9 9 9 9 9 9 10 11
15 16 19 21 21 19 17 17 19 21 24 25 24 22 22 25 28 27 25 24 23 22 21 20 22 22 22 20 19 20 22 22 20 21 17 8 3 5 8 8 7 8 9 9 9 8 9 9 8 8 9 9 9 9
16 18 19 21 19 17 17 18 19 25 26 26 28 31 29 29 28 31 29 27 26 25 25 22 23 23 23 22 21 21 23 19 15 14 12 6 2 4 4 5 7 8 9 9 10 9 8 8 8 8 8 8 8 8
19 20 20 20 18 17 18 19 18 23 25 24 25 28 27 28 28 27 28 29 26 25 25 24 25 23 22 21 21 23 25 23 8 6 7 6 2 4 6 8 7 7 7 8 7 7 7 7 7 7 7 6 7 6
18 17 17 17 17 17 18 19 20 21 24 24 25 26 27 26 27 27 27 25 28 28 31 26 24 27 29 29 26 23 22 24 7 6 4 4 2 3 4 2 5 6 7 6 6 6 5 5 6 5 5 7 11 10
17 15 17 18 18 17 21 21 21 23 22 24 27 25 28 28 27 27 25 26 30 33 29 28 26 25 29 28 27 27 26 25 11 8 5 2 2 2 2 4 5 4 3 3 2 4 5 5 6 6 5 7 11 11
15 16 18 18 19 20 23 18 21 20 23 22 23 25 25 26 26 23 28 27 29 31 32 33 35 32 30 31 27 26 23 22 24 11 1 1 1 2 2 4 5 6 3 1 1 2 3 4 5 6 6 5 7 7
15 18 19 20 18 21 20 21 19 21 21 24 24 26 25 25 24 27 30 31 31 30 31 37 34 35 35 31 31 27 24 21 21 13 3 1 1 1 3 4 5 3 4 4 2 2 4 3 4 3 3 3 5 3
19 18 17 19 17 18 19 20 17 17 22 22 24 24 23 22 26 28 29 30 30 33 36 36 34 38 39 34 32 28 24 25 22 24 8 7 6 6 5 5 6 5 5 4 4 3 4 3 5 5 3 1 3 4
18 18 17 16 15 15 15 16 15 18 20 22 23 22 20 24 25 26 23 23 24 26 31 33 35 34 33 29 25 21 20 19 23 24 7 5 5 10 6 2 3 5 5 3 3 3 4 4 5 8 7 5 4 5
20 20 22 22 20 20 19 22 21 20 21 20 19 19 21 24 24 21 20 19 19 19 21 25 31 32 31 29 23 17 12 14 16 20 12 9 11 10 4 0 1 6 4 1 2 2 2 3 6 6 6 6 7 9
19 18 21 22 24 24 24 22 21 22 22 23 23 24 22 22 20 19 18 18 18 18 17 14 19 22 24 24 23 19 16 15 15 11 10 11 11 8 8 10 9 9 6 3 3 3 4 4 4 5 8 8 8 7
17 17 17 18 21 21 23 23 22 21 20 20 21 24 23 21 21 21 22 21 20 19 15 11 11 12 11 13 12 12 12 13 14 13 12 12 11 8 7 9 9 8 6 5 4 4 5 5 7 9 9 9 9 8
17 19 17 16 18 20 21 23 21 20 21 23 21 21 23 24 24 22 22 21 20 18 17 17 18 17 16 15 18 18 19 18 16 14 11 10 8 10 10 7 5 3 5 5 5 6 7 7 9 10 10 9 10 11
17 17 17 17 17 19 22 20 21 20 19 20 19 18 18 16 17 20 23 19 15 14 15 15 19 23 21 21 22 21 21 20 16 14 15 13 11 10 9 7 4 1 5 6 7 8 11 13 13 11 11 12 11 11
17 18 17 16 15 17 18 19 19 19 20 23 21 21 18 16 15 14 15 16 14 23 23 25 19 14 20 23 23 23 21 14 11 10 8 8 10 9 7 3 6 7 7 8 10 10 14 14 16 14 14 14 13 12
17 17 17 15 15 16 17 17 17 16 16 18 18 18 18 17 17 16 13 14 16 20 26 23 24 24 20 17 15 12 10 11 8 7 6 5 4 3 7 10 10 9 9 9 7 9 13 14 14 15 16 15 13 12
Wind_Direction
297 300 290 288 286 283 290 291 295 292 290 293 294 298 301 301 301 297 273 289 288 271 251 260 270 259 268 266 257 273 271 277 275 273 279 281 280 281 286 285 284 302 294 308 298 300 301 326 327 320 330 340 346 343
293 289 287 287 282 282 290 291 296 294 290 291 293 295 299 300 299 299 282 286 286 278 261 271 262 241 256 261 269 272 277 278 284 276 279 286 290 292 290 292 285 266 279 295 291 300 314 320 326 344 3 2 346 354
290 289 290 295 282 288 292 292 294 297 292 289 291 293 295 298 297 296 271 280 287 282 271 270 252 253 257 251 262 268 273 309 290 298 284 286 280 275 267 275 294 313 287 288 292 312 321 336 352 359 12 21 30 46
282 287 291 287 291 293 292 293 296 295 295 291 288 291 293 294 294 291 277 286 283 285 275 267 273 256 261 256 259 266 271 290 303 301 284 279 284 289 288 285 283 299 295 303 311 316 325 326 345 24 31 44 58 53
275 278 283 293 299 297 295 292 294 295 292 292 289 288 290 292 291 288 279 288 267 295 279 260 265 265 258 252 253 264 268 290 289 295 260 262 286 287 284 282 282 303 303 299 306 307 312 306 8 65 76 69 63 65
280 284 294 301 304 297 297 290 290 294 292 290 288 287 288 291 295 302 298 303 302 291 295 251 274 266 268 264 256 268 279 284 281 297 292 265 268 280 286 280 292 300 307 308 309 301 310 251 10 18 87 81 59 36
291 295 298 297 299 300 296 294 291 291 288 286 285 283 283 288 295 292 289 304 309 305 294 267 261 261 270 269 271 274 285 287 282 277 276 278 274 280 285 287 290 299 304 307 314 322 315 259 264 149 83 52 26 10
299 301 303 305 307 304 308 303 294 287 283 280 277 277 279 279 285 284 292 268 286 291 293 284 271 269 275 271 274 283 285 289 287 282 282 277 281 284 284 288 293 300 310 316 319 309 304 333 139 131 91 55 5 358
303 304 308 314 317 318 312 303 296 288 284 282 280 279 303 303 292 292 302 329 302 288 288 289 279 274 277 272 284 294 296 284 289 285 283 290 282 282 286 289 290 294 303 312 317 327 123 157 153 150 284 334 344 351
308 307 313 323 321 317 308 299 295 291 286 288 304 303 297 307 294 301 291 288 288 284 282 279 283 275 285 276 276 288 290 287 290 290 301 286 279 287 292 294 296 299 320 349 348 343 77 144 173 209 243 355 3 4
333 329 326 328 321 311 307 298 292 291 308 301 298 296 296 298 305 291 284 283 284 282 283 282 275 267 285 278 278 284 295 299 289 293 295 295 292 290 289 292 299 285 171 151 155 149 155 147 147 152 9 5 11 18
333 331 324 318 315 305 301 297 295 299 302 300 297 298 294 292 292 284 278 282 282 279 285 289 286 282 270 280 282 283 289 298 294 313 302 298 303 304 306 295 294 221 193 172 140 133 119 106 94 84 63 36 25 25
337 334 328 318 312 305 299 297 296 294 298 305 300 293 293 288 275 275 272 274 274 280 287 294 289 293 278 265 279 283 289 288 304 304 300 304 309 310 316 329 327 276 269 124 85 56 78 62 55 68 46 29 33 30
332 325 320 317 312 305 299 295 291 294 293 294 297 287 285 285 277 271 271 273 280 286 282 284 291 292 284 261 282 281 287 297 295 292 292 301 309 321 326 338 87 120 136 119 101 89 86 83 70 53 46 43 35 25
322 320 320 319 311 305 299 294 292 289 288 288 289 285 279 280 279 283 282 281 284 284 286 283 287 283 282 272 273 283 289 295 294 292 300 303 304 325 341 30 93 104 110 103 101 97 95 87 76 59 55 51 39 32
311 319 315 306 304 300 297 296 297 293 288 285 281 282 281 278 273 277 285 282 287 286 285 285 277 279 274 277 276 274 280 289 294 302 309 312 337 17 84 105 98 97 99 96 95 98 95 88 84 74 62 56 49 43
318 314 309 306 301 300 301 297 293 287 283 284 278 274 272 276 274 276 281 285 287 285 273 275 272 271 283 272 268 277 278 285 293 293 299 310 25 91 104 106 104 101 96 91 94 97 96 87 76 71 68 61 55 51
325 322 317 314 309 306 301 296 285 282 277 275 278 279 278 275 274 274 277 282 284 279 278 272 273 268 270 273 278 278 282 286 288 288 291 312 38 96 112 115 110 105 102 100 96 93 94 93 85 73 74 73 58 57
323 320 319 318 316 308 300 293 288 279 279 280 277 273 275 276 275 269 271 273 275 275 272 271 267 263 267 272 272 282 282 286 286 291 281 298 44 94 105 115 114 112 110 107 104 103 97 93 82 75 73 62 57 61
315 315 316 316 313 307 302 298 298 288 284 286 284 279 278 276 275 274 270 269 271 268 265 263 261 266 263 264 271 278 272 268 297 284 285 307 357 98 118 126 125 119 107 103 95 88 76 59 59 82 62 55 40 52
318 320 321 319 311 305 301 300 295 295 293 288 287 284 280 279 275 271 272 270 263 261 255 262 267 262 261 261 273 280 282 264 263 276 290 300 329 90 100 99 113 117 117 110 105 102 86 81 93 80 47 24 359 9
321 321 314 306 301 301 291 288 294 296 296 291 288 286 278 274 273 273 274 269 263 256 259 258 262 269 263 261 265 266 271 257 266 289 296 64 80 108 108 115 113 119 119 110 54 97 102 85 79 95 66 16 356 8
324 318 307 301 293 291 286 298 293 296 290 292 291 283 279 277 274 273 269 269 268 260 256 253 252 257 260 256 258 261 272 266 249 252 231 359 345 33 80 93 103 115 81 112 90 37 45 8 30 77 93 53 12 14
315 301 295 291 287 287 292 291 295 294 293 285 285 278 279 277 275 268 266 267 266 262 256 249 251 246 246 253 246 258 266 275 265 270 277 202 117 127 110 103 104 88 43 61 98 94 347 24 37 53 65 50 28 49
294 291 291 285 289 289 291 292 296 296 286 280 276 277 276 276 268 265 264 268 267 256 250 249 247 241 240 247 253 260 265 262 262 261 274 278 287 288 299 313 319 324 355 17 351 323 351 351 355 4 13 69 33 68
282 277 277 283 286 288 292 297 296 287 278 275 271 270 274 265 256 256 262 271 275 262 250 245 237 237 240 245 251 251 248 257 255 259 284 278 287 270 271 306 320 319 334 350 351 5 10 24 13 0 8 45 93 103
231 242 243 251 256 262 273 265 268 270 265 264 266 260 255 246 246 254 264 275 272 269 265 254 240 237 236 241 250 258 268 263 274 265 280 280 272 273 287 290 306 337 359 52 0 19 70 27 10 33 45 91 107 126
204 219 220 235 235 236 240 242 242 237 238 235 235 230 232 235 243 259 261 274 270 262 263 274 244 243 244 245 249 254 257 258 263 286 297 295 293 296 298 310 327 343 346 33 51 51 40 27 47 66 105 98 74 73
206 215 213 216 216 218 216 216 216 221 237 229 225 226 233 243 250 258 259 264 266 263 262 274 263 245 238 243 253 262 272 269 268 271 279 281 286 293 299 311 316 325 342 357 14 44 58 80 86 104 100 90 69 97
203 191 205 213 208 201 206 198 207 223 229 223 235 238 243 243 245 248 248 250 252 251 261 259 251 251 247 255 259 266 271 275 276 275 276 278 287 295 302 318 334 347 354 21 58 42 40 75 96 103 100 63 32 68
212 201 205 207 212 214 211 216 220 220 217 223 233 228 221 234 241 236 228 242 254 264 257 253 251 251 256 262 261 263 267 275 272 274 282 287 290 296 304 315 318 11 71 76 75 89 100 102 111 102 111 120 115 111
194 192 196 198 206 205 203 198 202 203 198 192 203 212 229 237 236 236 248 249 258 225 228 219 240 254 255 244 250 254 266 278 278 285 303 299 294 303 323 9 98 102 86 76 101 107 117 119 127 120 119 134 119 109
191 195 196 204 198 191 192 195 200 205 204 204 208 218 228 236 230 242 254 244 242 229 215 230 226 231 244 257 272 280 276 279 292 300 312 315 347 34 75 85 81 95 92 85 81 86 99 106 110 126 134 130 117 119